Location: New Canada
(47.1017°N, 68.5042°W)
Time: 16:58:33
(UTC+00:00)

RS-44 - Pass Details

Date: 16 April 2024
Orbit: 1174 x 1511 km, 82.5° (Epoch: 20 May)

Event Time Altitude Azimuth Distance (km) Brightness Sun altitude
Rises 02:50:52 0° 233° (SW) 4,645 ? -28.2°
Reaches altitude 10° 02:54:30 10° 246° (WSW) 3,658 ? -28.5°
Maximum altitude 03:01:31 26° 299° (WNW) 2,606 ? -29.1°
Drops below altitude 10° 03:08:21 10° 352° (N) 3,544 ? -29.5°
Sets 03:11:51 0° 5° (N) 4,473 ? -29.8°
